[Date Prev][Date Next][Thread Prev][Thread Next] - [Date Index][Thread Index][Author Index]

2 Line ISS Keps 7-8



ISS
1 25544U 98067A   04190.36332130  .00004675  00000-0  43568-4 0  1720
2 25544  51.6301 217.7305 0005954 341.1041 141.2171 15.69605470321646
----
Via the sarex mailing list at AMSAT.ORG courtesy of AMSAT-NA.
To unsubscribe, send "unsubscribe sarex" to Majordomo@amsat.org



AMSAT Top AMSAT Home